Starlink 33799

operational
NORAD ID: 63447 Int'l Des: 2025-069 Owner: SPXS Country: US Constellation: starlink
LEOCIRCULAR

Starlink 33799について

説明を読み込み中...

リアルタイム位置

3D地球を読み込み中...

次回通過

高度履歴

Altitude vs Time

uPlot chart will show altitude changes over time

軌道要素

1 63447U 25069Q 26033.04600551 .00025390 00000-0 86622-3 0 9997
2 63447 53.1588 308.3124 0001267 80.5024 279.6120 15.30208159 47835
Epoch: Feb 2, 2026 • Age: 31 hours

現在のステータス

高度 477.0 km
速度 7.63 km/s
衛星直下点 -5.79°S, 122.29°W
打ち上げ日 Apr 4, 2025
運用期間 0.8 years
タイプ internet

技術仕様

分類 Payload
質量 575.00 kg
乾燥質量 530.00 kg
総質量 575.00 kg
長さ 0.30 m
直径 4.10 m
スパン 29.00 m
形状 Box + pan
製造者 SPXS
バスタイプ Starlink V2MO
フェーズステータス In Orbit
所有者/国 SPXS/US

大規模コンステレーション

Loading constellations...